#timestamp,LO_Frequency,Hit,StdDev 
1645765215.0,286047005.5,N
1645765215.9,286047005.5,N
1645765235.8,286047006.1,N
1645765255.6,286047004.8,N
1645765275.4,286047005.6,N
1645765295.3,286047008.1,N
1645765315.1,286047011.8,Y
1645765335.8,286047005.7,P
1645765355.7,286047005.2,P
1645765375.5,286047003.3,P
1645765395.4,286047003.6,Y
1645765415.2,286047001.3,P
1645765435.0,286047001.9,N
1645765435.9,286047001.9,N
1645765455.8,286047001.6,N
1645765475.6,286047004.0,Y
1645765495.5,286046995.5,P
1645765515.3,286046995.9,N
1645765535.1,286046991.0,N
1645765555.9,286046996.4,N
1645765575.7,286046994.1,N
1645765595.5,286046992.8,N
1645765615.4,286046992.8,N
1645765635.2,286046995.8,N
1645765655.1,286046994.4,N
1645765656.0,286046994.4,N
1645765675.8,286046994.3,N
1645765695.6,286046993.1,N
1645765715.5,286046994.1,N
1645765735.3,286046995.0,N
1645765755.1,286046994.5,N
1645765775.9,286046990.2,Y
1645765795.7,286046998.0,P
1645765815.6,286046992.6,P
1645765835.4,286046990.7,P
1645765855.2,286046991.7,Y
1645765875.1,286047000.0,P
1645765876.0,286047000.0,N
1645765895.8,286047002.2,N
1645765915.7,286047001.6,N
1645765935.5,286046998.8,N
1645765955.3,286047000.2,N
1645765975.2,286047002.2,N
1645765995.9,286047007.6,Y
1645766015.7,286047005.1,P
1645766035.6,286047006.6,N
1645766055.4,286047006.0,N
1645766075.3,286047001.5,N
1645766095.1,286047004.4,N
1645766096.0,286047004.4,N
1645766115.8,286046998.6,N
1645766135.7,286047000.1,N
1645766155.5,286047002.7,N
1645766175.3,286047004.3,N
1645766195.2,286047000.0,N
1645766215.0,286047001.7,N
1645766215.9,286047001.7,N
1645766235.8,286047002.0,N
1645766255.6,286047003.2,N
1645766275.4,286047003.1,N
1645766295.3,286047005.9,N
1645766315.1,286047002.5,N
1645766335.8,286046997.4,N
1645766355.7,286046990.4,Y
1645766375.5,286046986.8,P
1645766395.4,286046991.2,N
1645766415.2,286046994.4,N
1645766435.0,286046994.4,N
1645766435.9,286046994.4,N
1645766455.8,286046993.9,N
1645766475.6,286046990.2,N
1645766495.4,286046992.5,N
1645766515.3,286046997.4,N
1645766535.1,286046996.5,N
1645766555.9,286046993.8,N
1645766575.7,286046992.7,N
1645766595.5,286046988.9,Y
1645766615.4,286046997.3,P
1645766635.2,286046997.3,N
1645766655.0,286046995.7,N
1645766656.0,286046995.7,Y
1645766675.8,286046998.8,P
1645766695.6,286047002.1,N
1645766715.5,286047005.0,N
1645766735.3,286047009.2,N
1645766755.1,286047002.9,N
1645766775.9,286047000.6,N
1645766795.7,286046998.1,N
1645766815.5,286047001.8,N
1645766835.4,286046999.8,N
1645766855.2,286047002.9,N
1645766875.1,286047002.9,N
1645766876.0,286047002.9,N
1645766895.8,286047007.2,N
1645766915.6,286047010.8,Y
1645766935.5,286047008.3,P
1645766955.3,286047004.7,N
1645766975.2,286047002.7,N
1645766995.9,286047000.9,N
1645767015.7,286046999.6,N
1645767035.6,286047001.1,N
1645767055.4,286047004.3,N
1645767075.3,286047006.7,N
1645767095.1,286047001.7,N
1645767096.0,286047001.7,N
1645767115.8,286046997.7,N
1645767135.7,286046997.7,N
1645767155.5,286047000.6,N
1645767175.3,286047001.7,N
1645767195.2,286047005.1,N
1645767215.0,286047005.0,N
1645767215.9,286047005.0,N
1645767235.8,286047005.1,N
1645767255.6,286047004.9,N
1645767275.4,286047005.7,N
1645767295.3,286047003.4,N
1645767315.1,286047002.0,N
1645767335.9,286046999.9,N
1645767355.7,286047002.0,N
1645767375.5,286047000.2,N
1645767395.4,286046999.7,N
1645767415.2,286047000.4,N
1645767435.0,286046999.7,N
1645767435.9,286046999.7,N
1645767455.8,286047001.6,N
1645767475.6,286047004.3,N
1645767495.5,286047002.0,N
1645767515.3,286047002.2,N
1645767535.1,286047001.9,N
1645767555.9,286047004.1,N
1645767575.7,286047006.7,N
1645767595.6,286047006.4,N
1645767615.4,286047006.2,N
1645767635.2,286047005.4,N
1645767655.1,286047005.5,N
1645767656.0,286047005.5,N
1645767675.8,286047004.0,N
1645767725.7,286047006.9,E
1645767735.6,286047004.2,N
1645767755.4,286047000.7,P
1645767775.3,286047003.9,N
1645767795.1,286046998.5,N
1645767815.9,286047001.2,N
1645767835.7,286047000.6,N
1645767855.5,286046996.8,N
1645767875.4,286047000.5,N
1645767895.2,286047002.7,N
1645767915.0,286047004.1,N
1645767915.9,286047004.1,N
1645767935.8,286047007.2,Y
1645767955.6,286047004.0,P
1645767975.5,286047000.3,N
1645767995.3,286047003.6,N
1645768015.1,286046999.9,N
1645768035.9,286047001.3,N
1645768055.7,286047004.5,N
1645768075.5,286047004.4,N
1645768095.4,286047003.1,N
1645768115.2,286047001.3,N
1645768135.1,286047008.6,Y
1645768136.0,286047008.6,P
1645768155.8,286047001.3,N
1645768175.6,286047002.7,N
1645768195.5,286047001.6,N
1645768215.3,286046997.4,N
1645768235.1,286047000.9,N
1645768255.9,286047002.3,N
1645768275.7,286047004.3,N
1645768295.6,286047004.0,N
1645768315.4,286047001.3,N
1645768335.2,286047000.9,N
1645768355.1,286047001.6,N
1645768356.0,286047001.6,N
1645768375.8,286047001.3,N
1645768395.6,286047003.1,N
1645768415.5,286047006.2,N
1645768435.3,286047010.8,Y
1645768455.2,286047009.0,P
1645768475.9,286047003.3,N
1645768495.7,286047007.2,N
1645768515.6,286047005.7,N
1645768535.4,286047003.0,N
1645768555.2,286047003.3,N
1645768575.1,286047004.9,N
1645768576.0,286047004.9,N
1645768595.8,286047005.6,N
1645768615.7,286047005.8,N
1645768635.5,286047005.8,Y
1645768655.3,286046998.2,P
1645768675.2,286046998.1,N
1645768695.0,286047001.0,N
1645768695.9,286047001.0,N
1645768715.8,286046998.7,N
1645768735.6,286046996.0,N
1645768755.4,286046991.4,Y
1645768775.3,286046989.2,P
1645768795.1,286046991.6,N
